Temp
32 30 30 30 31 32 33 33 33 33 32 32 31 29 28 27 27 30 30 28 28 28 30 31 30 30 30 30 30 29 28 28 27 27 27 27 27 27 27 26 28 27 27 31 31 30 30 29 28 27 27 26 26 26 25 24 24 24 24 23 22 22 22 21 21 21 22 22 22 22 22 22 22 22 22 23 24 24 24 24 23 23 23 23 23 23
31 29 30 32 33 33 33 33 33 32 32 32 31 29 28 28 28 30 29 28 27 27 30 31 29 30 31 30 29 28 28 27 26 26 26 25 25 27 26 25 27 27 28 30 30 30 30 29 28 27 27 26 26 25 25 24 24 24 23 23 22 22 21 21 21 22 22 22 22 22 22 22 22 23 23 24 24 25 24 23 23 23 23 23 23 23
29 29 32 33 33 32 32 33 32 32 32 32 31 29 26 29 30 28 28 28 28 28 30 31 29 30 31 29 28 28 27 26 25 25 24 23 24 24 24 25 26 26 28 28 28 30 30 29 28 28 27 27 26 26 25 25 24 24 23 22 22 22 22 22 21 22 22 22 22 22 22 23 23 24 24 24 24 24 24 23 23 23 23 23 23 23
27 30 33 32 32 32 32 32 32 31 32 32 31 27 26 30 29 25 27 29 28 28 29 30 29 31 31 29 28 28 26 25 24 23 23 23 24 23 23 25 26 27 29 28 29 30 30 29 29 28 28 27 26 26 26 25 24 24 24 23 22 22 22 22 21 22 22 22 22 22 22 23 24 24 24 24 24 24 24 24 23 23 23 23 24 24
29 31 33 31 31 32 31 31 32 30 30 31 32 29 28 31 30 28 29 29 29 28 29 29 27 28 30 29 29 28 26 25 23 22 22 23 23 23 24 26 27 29 30 29 30 31 30 30 29 28 28 27 27 27 26 26 25 25 24 23 23 22 22 22 21 22 22 21 21 22 22 23 23 23 24 24 24 24 24 24 24 24 23 23 24 24
32 32 32 31 31 32 32 31 32 31 28 29 32 33 32 33 32 31 31 29 26 25 27 28 23 23 28 29 29 29 27 25 24 22 22 22 22 23 26 26 28 30 30 30 30 30 31 30 29 28 28 28 27 27 27 26 26 25 24 23 23 23 22 22 21 21 22 21 21 22 22 23 23 24 24 25 25 25 25 25 25 24 24 24 24 24
32 32 31 32 31 32 32 32 32 33 29 26 30 33 33 34 32 31 30 27 24 24 27 29 24 22 25 27 29 29 28 26 24 23 22 22 22 23 25 27 28 30 30 30 30 30 31 30 29 28 28 28 28 27 27 26 26 25 24 23 23 23 23 22 22 22 22 22 22 22 23 24 24 25 25 25 25 26 25 26 25 25 24 24 24 25
32 32 31 32 32 32 31 31 33 34 29 26 30 33 32 33 32 31 30 27 26 27 27 28 27 23 23 26 29 29 28 27 26 24 22 22 22 23 25 27 28 30 30 30 30 30 30 30 29 28 28 28 28 28 27 27 26 25 24 24 23 23 23 23 22 22 22 22 22 23 24 24 25 25 25 25 25 25 25 25 25 25 25 24 24 25
33 32 32 32 32 32 31 31 33 33 30 29 31 33 33 33 32 32 30 27 28 27 23 26 27 23 22 25 29 29 28 28 27 26 24 23 22 23 25 27 28 29 29 29 30 30 30 29 27 27 29 29 28 28 27 27 26 25 24 24 23 23 23 23 22 22 22 22 23 23 24 25 25 26 25 25 25 25 25 25 25 25 25 24 24 24
33 32 32 32 32 32 32 32 33 33 32 31 32 33 33 33 32 32 31 27 27 25 22 24 26 23 22 25 27 28 27 28 28 28 27 25 24 24 25 27 28 28 28 29 30 30 29 27 26 28 29 29 28 28 27 27 26 25 24 24 23 23 23 23 22 22 22 22 22 23 24 24 25 25 25 25 25 24 24 25 25 24 24 25 25 24
33 31 31 32 32 32 32 32 32 32 33 32 32 32 31 32 32 31 30 27 24 23 23 24 25 24 22 24 27 28 28 29 29 28 27 27 26 26 26 27 28 28 28 29 30 30 29 27 26 28 29 29 29 28 27 27 26 26 25 24 24 23 23 23 22 22 23 22 23 23 24 24 24 25 25 25 25 24 24 25 25 24 24 25 25 25
33 31 32 32 31 32 32 32 31 32 32 32 33 32 28 27 28 26 26 25 23 22 23 25 26 24 22 23 28 30 30 31 30 29 27 26 27 27 28 28 27 28 29 29 29 29 30 29 29 29 29 29 29 28 28 27 27 26 25 24 24 23 23 23 23 23 23 23 23 23 24 24 24 25 25 25 25 25 25 25 25 25 25 25 25 25
32 32 32 32 31 32 32 31 31 31 32 33 32 28 24 23 23 23 22 23 22 22 24 26 25 24 23 26 30 31 31 31 30 30 28 27 26 27 28 28 27 28 29 29 29 28 28 29 29 29 29 28 28 28 28 28 27 27 26 25 24 23 23 23 23 23 23 23 23 23 24 24 24 24 25 25 25 25 25 25 25 25 25 25 25 25
28 31 32 32 31 32 32 31 28 29 31 31 29 25 23 22 22 22 22 22 22 22 24 26 25 23 24 27 31 31 31 31 30 30 28 28 28 27 28 28 28 28 27 27 28 27 27 30 30 29 29 28 28 28 28 28 27 27 26 25 25 24 24 23 23 23 23 23 24 23 24 24 24 24 25 25 26 26 25 25 25 25 26 25 25 25
24 25 30 31 31 31 33 32 30 31 32 32 33 30 25 23 23 22 22 22 22 23 23 24 24 23 23 27 31 31 31 31 30 29 28 28 28 28 28 28 28 29 27 27 27 27 28 30 30 29 29 28 28 28 28 28 27 27 26 26 25 24 24 24 24 24 24 24 24 24 24 24 24 24 25 25 26 26 25 26 26 26 26 26 26 26
23 24 30 31 31 32 32 32 33 32 31 32 34 30 25 26 26 23 23 23 23 23 23 23 24 26 27 29 31 31 31 31 30 30 28 28 29 28 26 26 26 27 28 28 28 29 30 29 29 30 29 29 29 28 28 28 27 27 27 26 25 25 24 24 24 24 24 24 24 24 24 24 24 25 25 25 25 25 26 26 26 26 26 26 26 26
23 24 31 32 31 33 32 32 33 31 29 30 30 27 28 32 30 24 22 24 23 22 23 23 24 27 29 29 31 31 30 31 30 30 28 27 28 27 25 24 24 25 26 27 28 29 29 28 29 30 30 29 29 29 28 28 27 27 27 26 26 25 25 25 24 24 24 24 24 24 24 24 24 25 25 26 25 26 26 26 26 26 26 26 26 26
26 24 30 32 31 32 32 31 33 32 31 30 27 28 31 32 30 26 23 23 23 22 23 23 23 24 24 25 29 31 31 31 31 30 28 27 27 26 25 25 24 24 25 26 27 28 29 29 29 29 30 30 29 29 29 28 27 27 27 27 26 26 26 25 25 25 25 25 25 24 24 25 25 25 26 26 26 26 26 26 26 26 26 26 26 26
30 24 27 33 31 31 33 31 30 32 34 31 29 32 31 26 25 25 23 22 22 22 23 23 23 23 23 24 28 30 31 31 31 30 28 27 27 26 26 25 24 24 24 24 25 26 28 29 28 27 29 30 30 29 29 28 28 28 27 27 27 27 26 26 26 26 25 25 25 25 25 25 25 26 26 26 26 26 26 26 26 27 27 26 26 26
32 25 24 31 33 32 32 31 27 28 32 33 32 33 32 27 25 24 24 23 22 22 22 22 22 23 25 28 30 30 31 31 30 30 28 27 27 26 26 26 26 25 24 23 23 24 26 27 28 27 28 29 30 29 29 29 28 28 28 28 28 27 27 27 27 26 26 26 26 26 26 25 25 25 26 26 26 26 26 27 27 27 27 27 27 26
33 28 23 28 33 30 28 29 28 28 30 30 28 28 28 28 28 26 26 25 23 22 22 22 22 23 27 31 31 30 30 30 29 29 28 27 26 25 25 26 26 26 26 24 24 24 25 26 28 28 27 28 30 29 29 29 28 28 29 28 28 28 28 27 27 27 26 26 26 26 26 26 25 25 26 26 26 26 27 27 27 27 27 27 27 27
31 29 25 25 27 26 26 30 31 30 30 30 28 28 27 27 26 24 24 24 24 23 22 23 22 23 27 30 30 29 30 29 28 28 27 27 27 26 25 25 25 26 26 26 26 26 26 26 27 28 27 27 29 29 29 29 29 28 29 29 28 28 28 28 28 27 27 26 26 26 26 26 26 26 26 26 26 26 27 27 27 27 27 27 27 27
31 30 26 24 26 28 29 30 29 29 31 31 30 30 30 29 26 22 22 23 24 23 23 23 22 23 27 28 28 28 28 28 27 27 27 27 27 26 25 25 25 25 26 26 26 26 27 26 26 27 27 27 28 29 29 29 29 29 29 29 28 28 28 28 28 27 27 26 26 26 26 27 27 26 26 26 27 27 27 27 27 27 27 27 27 27
30 30 25 23 26 29 30 30 30 30 30 29 30 31 30 29 28 26 25 25 23 23 23 22 21 23 26 27 27 27 27 27 27 27 27 27 27 27 25 25 24 24 25 25 26 26 26 26 25 25 26 27 28 28 28 28 28 29 29 28 28 28 28 28 28 28 27 26 26 27 27 27 27 27 27 27 27 27 27 27 27 27 27 27 27 27
29 28 25 23 23 25 25 27 27 28 29 29 30 30 30 29 29 28 27 26 23 23 23 22 22 23 26 27 27 27 27 28 28 27 27 27 27 27 26 25 24 24 24 24 25 25 25 25 24 24 25 27 28 28 28 28 28 28 28 28 28 27 27 28 28 28 27 26 27 27 27 27 27 27 27 27 27 28 28 28 27 27 27 27 27 27
30 29 27 23 21 22 22 23 24 26 28 29 29 29 29 29 29 27 25 23 22 23 23 22 22 24 27 28 28 28 28 28 28 28 28 27 27 27 26 24 24 24 24 24 24 25 25 25 25 24 24 25 26 27 27 27 27 28 28 28 27 27 27 27 27 27 27 26 27 27 27 27 27 27 27 27 28 28 28 28 28 27 27 27 27 26
31 30 29 25 23 24 23 24 28 29 27 26 27 28 29 29 29 27 24 22 23 23 22 23 24 24 27 29 29 29 29 29 29 29 28 27 27 26 25 24 24 24 23 24 24 24 24 24 24 25 24 24 25 25 26 26 26 27 27 27 27 27 26 26 27 27 26 26 27 27 27 27 28 28 28 28 28 28 28 28 28 28 27 27 27 27
30 28 28 28 27 27 28 28 30 30 27 26 27 27 28 29 28 26 24 24 25 23 21 24 26 24 25 30 30 29 29 29 29 29 28 27 27 26 25 25 25 24 24 24 24 23 24 24 24 24 24 24 24 24 25 25 26 26 26 26 26 26 26 26 26 26 26 26 26 26 26 27 27 27 27 27 27 27 28 28 28 28 27 27 27 27
30 27 28 29 28 29 31 30 30 30 29 28 28 27 28 28 27 26 25 26 27 23 22 25 26 24 26 30 30 29 29 29 28 28 27 27 26 25 25 25 25 24 24 24 23 23 24 23 23 24 24 24 24 24 24 24 25 25 25 25 25 25 25 25 25 25 25 25 26 26 26 26 27 27 27 27 27 27 27 27 27 27 27 27 27 27
30 27 29 30 27 28 30 29 30 29 28 28 28 29 29 28 28 27 27 29 28 25 26 27 26 26 28 30 29 29 28 28 27 27 26 26 26 25 25 25 25 24 24 24 24 24 24 23 23 24 24 24 24 24 24 24 24 25 25 25 25 25 25 25 25 25 25 25 25 25 25 25 26 26 26 26 26 26 26 27 27 27 27 27 27 27
28 26 29 30 26 26 29 29 29 29 28 27 27 29 29 28 28 28 27 28 28 26 28 28 26 26 29 29 29 28 27 27 26 26 26 26 25 25 25 25 25 24 24 24 24 24 24 23 24 24 24 24 24 24 24 24 24 24 24 25 25 25 25 24 24 24 25 25 25 25 25 25 25 25 25 26 25 25 26 26 27 27 27 27 27 27
29 28 28 28 24 23 27 28 28 29 28 26 25 27 28 27 27 28 28 28 27 26 26 26 24 26 28 28 28 27 27 27 26 26 26 25 25 25 25 25 25 24 24 24 24 24 23 23 23 23 24 24 24 24 24 24 24 24 24 24 24 25 25 24 24 24 25 25 25 25 25 25 25 25 25 25 25 25 25 25 26 26 26 26 26 26
31 29 27 26 23 22 27 28 27 27 25 23 25 28 29 29 28 29 29 29 29 28 26 25 26 28 28 28 28 27 27 27 26 26 25 25 25 25 25 25 24 24 24 24 24 24 24 24 23 23 23 23 23 24 24 24 24 24 24 24 24 24 24 24 24 24 24 25 25 24 24 24 25 24 24 24 24 24 24 25 25 25 26 26 26 26
31 29 28 27 23 22 25 27 26 24 22 23 27 30 30 30 29 29 29 29 29 29 28 28 29 29 28 28 28 27 27 26 25 25 25 24 25 25 25 25 24 24 24 24 24 24 24 24 24 23 23 23 23 23 23 23 23 23 23 23 23 24 24 24 24 23 24 25 25 24 24 24 24 24 24 24 24 24 24 24 24 25 25 25 25 25
31 29 29 28 25 23 25 25 22 21 23 26 29 30 29 29 29 29 29 30 30 29 29 29 29 29 28 28 27 26 26 25 25 24 24 24 24 24 24 24 24 24 24 24 24 24 24 24 24 23 23 23 23 23 23 23 23 23 23 23 23 23 24 24 24 24 24 24 24 24 24 24 24 24 24 24 24 24 24 24 24 24 25 25 25 25
31 30 28 27 25 24 23 22 21 23 26 30 30 29 28 28 28 27 27 29 30 29 29 29 29 29 29 27 26 26 25 25 25 25 24 24 24 24 24 24 24 24 24 24 24 24 24 23 23 23 23 22 22 22 22 23 23 22 22 23 23 23 23 24 24 24 24 24 23 23 23 24 24 24 24 24 24 24 24 24 24 24 24 24 25 25
31 30 28 26 25 24 22 21 23 24 26 28 29 29 29 29 29 28 26 28 30 30 29 29 29 29 28 26 25 25 25 25 25 25 24 24 24 24 24 24 24 24 24 25 24 24 24 23 23 23 22 22 22 22 22 22 22 22 22 22 23 23 23 23 24 24 25 24 23 23 23 23 24 24 24 24 24 24 24 24 24 24 24 24 24 24
31 30 29 25 24 25 22 22 23 22 22 25 28 30 30 30 30 29 27 27 30 30 29 29 29 28 27 26 25 25 25 25 26 26 25 24 24 24 24 25 25 25 25 25 25 24 24 23 23 22 22 21 22 22 22 22 22 21 22 22 22 22 23 23 23 24 24 23 22 22 22 22 23 24 23 23 24 24 24 24 24 24 24 24 24 24
30 30 30 26 24 24 22 21 22 22 23 26 29 30 30 29 30 29 25 25 28 30 29 29 28 27 27 26 25 25 25 26 27 26 25 24 23 24 24 24 25 25 25 24 24 24 23 23 22 22 22 22 21 21 21 21 21 21 21 21 21 22 23 23 23 23 23 22 22 23 23 23 23 23 23 23 23 23 24 23 23 23 24 24 24 24
29 29 29 25 23 23 23 22 22 23 25 28 29 29 29 29 29 27 22 23 27 29 28 28 28 27 26 26 26 25 25 26 26 25 24 24 24 24 24 24 24 24 24 24 23 23 22 22 22 22 22 22 21 21 21 21 21 21 20 20 20 21 21 22 22 22 21 21 22 23 23 23 23 23 23 23 23 23 23 23 23 23 23 23 24 24
28 28 27 25 23 23 23 22 23 25 27 29 29 29 29 29 27 24 22 24 28 28 27 28 27 26 26 26 26 26 26 25 24 23 23 23 23 24 24 24 24 24 23 23 22 22 22 22 22 22 22 21 21 21 21 21 21 20 20 19 19 20 20 20 21 21 20 20 21 22 22 22 22 22 22 22 23 23 23 22 23 23 23 22 23 23
25 26 26 25 24 24 23 22 22 24 27 28 28 28 28 26 24 23 24 26 27 27 27 27 26 26 26 26 26 26 25 24 23 23 23 23 23 23 24 24 24 24 23 23 22 21 22 22 22 21 21 21 21 21 21 21 21 20 19 19 19 19 19 19 20 20 20 20 20 20 21 21 21 22 22 22 22 22 22 22 22 22 22 22 22 22
26 24 23 24 25 24 23 22 22 23 26 28 27 27 27 26 25 26 27 27 27 27 27 26 26 26 26 26 26 25 25 24 23 22 22 23 23 23 23 23 23 23 23 23 22 21 21 21 21 21 20 20 20 20 21 21 21 20 20 20 19 18 19 19 19 19 20 19 19 19 19 20 20 21 21 21 22 22 22 22 22 22 22 22 22 22
29 26 23 25 27 24 22 22 24 26 27 28 28 28 28 27 27 27 27 27 27 27 27 27 26 26 25 26 26 25 24 24 23 22 22 23 23 23 23 23 23 23 23 22 22 21 21 20 20 20 20 19 20 20 20 21 21 20 20 20 19 18 19 18 18 19 19 19 19 19 19 19 19 20 20 20 21 21 21 21 21 21 21 21 21 21
28 27 25 27 29 27 25 26 27 28 29 29 28 28 28 27 26 27 27 28 27 27 27 27 26 26 25 25 25 25 24 23 22 22 22 22 23 23 23 23 23 22 22 22 21 21 20 20 20 20 20 19 19 19 19 20 20 19 19 19 19 19 18 18 18 18 18 18 18 18 19 19 19 19 19 19 20 20 21 21 21 21 21 20 20 20
28 27 27 28 29 28 27 28 27 27 28 29 28 28 28 27 26 26 27 27 27 27 27 26 26 26 25 24 24 24 24 23 22 22 22 23 23 23 23 23 22 22 21 21 21 20 20 20 19 20 20 19 18 18 18 19 19 19 18 18 18 18 18 18 18 17 17 17 17 17 18 18 18 18 18 19 19 19 20 20 21 20 20 20 20 20
28 27 28 29 28 27 26 27 28 28 28 28 28 27 27 27 26 26 26 27 26 26 26 26 25 25 25 24 24 24 23 22 22 22 22 22 22 22 23 23 22 21 21 20 20 20 20 19 19 19 19 19 18 18 18 18 19 18 18 18 18 18 18 18 17 17 17 16 16 16 17 17 17 17 17 18 18 18 19 19 19 19 19 19 19 19
28 27 28 29 28 27 27 27 28 27 27 27 28 27 27 27 26 25 26 26 26 26 25 25 25 24 24 24 23 23 22 22 22 22 22 22 22 22 23 22 21 21 20 20 20 20 20 19 19 19 19 18 18 18 18 18 18 18 18 18 18 18 17 17 17 17 16 16 16 16 16 16 16 16 16 17 17 17 17 17 18 17 18 18 18 18
27 27 28 28 28 28 28 27 26 27 26 26 27 27 27 27 26 25 25 25 25 25 25 24 24 25 24 23 23 22 22 22 22 22 22 22 22 22 22 22 21 20 20 20 20 19 19 19 19 18 18 18 18 18 18 18 18 18 18 17 17 17 17 17 17 17 16 16 16 15 15 15 15 15 15 15 16 16 16 16 16 16 16 16 17 17
27 28 29 28 27 28 28 28 27 27 27 27 27 27 27 26 26 25 25 25 25 25 25 24 24 24 24 24 23 23 22 22 22 22 22 22 22 22 22 22 21 21 20 20 20 19 19 18 18 18 18 17 17 17 17 17 17 17 17 17 17 17 17 17 17 17 17 16 16 16 15 15 15 15 14 14 15 15 15 15 15 16 16 16 16 16
28 29 29 29 27 27 29 29 28 28 28 28 28 28 27 26 26 25 25 25 26 25 25 24 24 23 23 23 24 23 22 22 22 22 22 22 21 21 21 21 21 21 21 20 20 19 19 18 18 18 18 18 18 17 17 17 17 17 17 17 17 17 17 17 18 18 17 17 16 16 16 16 15 15 15 15 15 15 14 13 14 14 15 15 16 16
Height
775 786 789 786 783 778 776 776 775 776 779 784 785 786 788 787 785 783 787 786 784 790 785 781 784 781 777 775 774 773 773 776 777 778 778 778 781 781 785 788 784 786 782 775 780 784 786 789 792 795 797 799 801 803 805 807 808 810 811 813 814 816 818 819 821 822 823 825 826 827 829 831 832 834 835 836 837 838 839 840 842 843 844 845 846 847
780 790 784 775 774 772 772 773 775 779 781 784 784 785 786 784 783 783 787 786 784 790 783 778 784 780 774 775 774 773 775 777 777 780 780 780 783 782 786 789 786 785 780 777 781 783 785 788 791 794 796 798 800 802 805 806 808 809 810 812 814 815 817 819 821 822 823 825 826 827 828 830 832 833 834 835 836 837 839 840 841 843 844 845 846 847
786 784 774 769 770 771 773 773 776 781 782 783 782 785 787 780 779 786 788 785 785 789 783 778 782 777 771 775 775 774 777 778 777 779 782 782 784 786 788 788 788 787 782 781 783 781 784 787 789 793 794 797 799 801 803 805 807 809 810 812 813 815 816 818 820 821 823 824 826 827 828 829 831 832 834 835 836 837 839 840 842 843 844 845 846 847
783 776 769 769 771 774 777 776 778 781 780 781 779 783 785 775 779 790 789 786 785 785 784 782 780 773 771 776 775 775 778 779 780 780 783 782 782 787 788 787 787 784 780 781 781 778 781 785 788 791 793 795 798 800 802 804 806 808 809 811 812 814 815 817 819 821 823 824 826 827 828 829 830 832 833 834 836 837 839 840 841 842 843 845 846 847
778 771 767 770 773 775 778 779 780 782 781 778 775 777 778 772 777 785 783 785 784 784 785 783 781 777 776 779 777 775 777 781 784 784 786 786 785 786 786 784 782 777 776 779 778 777 779 783 786 789 792 794 796 798 801 802 805 806 808 810 811 813 815 816 818 820 822 824 825 827 828 829 830 832 833 834 836 837 838 840 841 842 843 845 846 847
774 769 767 773 775 773 777 779 777 778 777 775 772 769 769 769 774 779 780 784 786 789 788 784 792 793 783 780 780 777 778 784 787 788 791 791 789 787 785 783 780 775 775 777 776 776 778 781 785 789 791 793 795 797 799 801 803 805 807 809 811 812 814 816 817 819 821 823 825 826 827 828 829 831 832 833 834 836 837 839 840 842 843 844 846 847
770 769 769 773 775 775 777 775 772 771 773 775 770 765 767 770 774 778 781 785 788 791 787 783 795 800 788 783 781 778 781 786 788 791 794 794 793 789 785 782 778 775 775 776 776 775 777 780 784 788 790 791 793 795 798 800 802 804 807 809 810 812 813 815 817 819 821 822 824 825 826 827 828 829 831 833 834 835 836 838 839 841 843 844 845 846
770 771 772 772 772 773 775 773 767 766 773 778 771 766 770 771 774 777 779 782 781 782 785 782 787 796 792 786 782 778 783 787 788 792 795 794 793 790 786 782 777 775 774 775 776 775 776 780 783 787 788 789 791 794 797 799 801 804 806 808 809 811 813 815 817 818 820 822 823 825 826 826 828 829 830 832 834 835 836 837 839 840 842 843 845 846
766 772 774 773 771 769 770 770 764 764 775 778 769 765 768 769 773 774 775 779 776 781 790 784 782 796 796 785 781 781 784 788 788 790 792 792 793 790 786 782 776 775 775 773 773 775 776 780 785 787 786 787 790 792 796 798 800 803 805 807 809 810 813 814 816 818 819 821 823 824 825 826 827 828 830 832 833 835 836 837 839 840 841 843 844 845
765 768 768 770 771 768 769 768 764 766 773 771 766 766 767 769 770 771 774 776 778 789 796 786 783 798 799 784 780 786 786 786 786 785 786 787 788 788 784 780 776 775 774 772 771 773 778 783 787 786 784 786 789 791 795 797 799 802 804 806 808 810 812 814 815 818 819 821 822 823 824 825 827 828 829 831 833 834 836 837 838 840 841 842 843 845
763 763 763 767 768 766 767 767 765 765 766 765 766 770 774 774 772 774 774 775 789 799 794 785 782 793 802 787 776 782 781 778 780 782 784 783 782 783 781 777 776 774 772 771 771 772 776 782 784 783 783 785 787 790 793 795 798 800 802 805 807 809 811 813 815 817 819 820 821 823 824 825 826 828 829 830 832 834 835 836 838 839 840 841 842 844
764 766 766 764 764 763 765 768 768 764 762 766 769 773 783 785 783 786 783 785 804 809 792 784 782 790 804 792 773 773 771 769 775 780 784 785 781 778 775 774 776 773 770 770 772 773 774 777 779 781 783 784 787 789 791 794 796 798 801 804 806 808 810 812 814 816 818 820 821 822 823 825 826 827 828 830 831 833 834 835 837 838 839 840 841 843
767 768 766 765 764 762 766 771 773 771 768 770 771 779 792 796 798 804 800 796 805 804 790 784 789 792 793 782 771 771 769 766 769 771 776 779 778 776 772 773 775 771 769 770 772 776 776 775 776 779 781 784 786 788 790 792 795 797 799 802 804 807 809 811 813 815 817 819 820 821 823 824 825 827 828 829 830 832 833 834 836 837 838 839 840 841
774 773 767 768 768 762 765 771 777 777 773 773 773 780 793 799 807 813 802 797 801 798 787 784 791 794 786 776 769 768 766 764 764 767 770 770 771 772 770 771 772 769 772 774 774 778 777 773 774 777 780 783 785 787 788 791 793 795 798 800 803 805 808 810 812 814 816 817 819 821 822 824 825 826 827 828 829 831 832 833 835 836 837 838 839 840
782 787 775 772 771 765 765 766 770 770 766 768 765 771 784 788 800 807 798 797 800 794 789 792 795 793 788 779 768 762 761 760 761 764 767 766 764 766 767 768 770 770 773 774 774 775 773 770 772 775 778 781 783 785 786 789 792 794 796 799 801 804 806 808 810 812 814 816 818 820 822 823 824 825 826 828 829 830 831 832 833 835 836 837 838 839
782 788 773 768 766 764 767 763 761 767 769 766 762 770 779 775 781 792 790 790 791 791 793 794 788 776 773 770 760 760 762 759 761 763 766 767 763 765 772 775 775 774 772 772 771 769 768 770 772 773 776 779 781 783 785 787 790 792 795 798 800 802 804 806 809 811 813 815 817 819 821 822 823 825 825 827 828 829 830 831 832 834 835 836 837 838
783 785 771 767 767 764 767 764 759 768 774 770 766 772 771 764 770 785 790 785 788 799 794 785 779 767 767 772 764 762 765 762 762 763 767 770 766 770 779 780 779 776 773 772 770 767 767 771 772 771 774 776 778 781 783 785 788 790 793 796 798 800 803 805 807 809 811 813 816 817 819 821 822 824 824 825 827 828 829 830 831 832 833 835 836 837
777 784 773 768 773 767 761 763 761 760 765 770 772 768 763 765 770 780 795 794 793 802 789 777 782 775 774 784 774 765 767 765 763 764 768 771 771 775 780 777 775 774 773 772 769 768 767 769 772 772 772 774 776 779 781 784 787 789 792 794 796 799 800 803 805 807 810 812 814 816 817 819 821 822 823 824 825 827 828 829 830 831 832 833 834 835
769 784 778 766 771 768 758 765 771 762 757 764 767 762 766 782 783 782 795 800 800 805 791 780 785 778 775 780 774 770 770 766 765 766 770 773 774 777 777 774 773 773 774 775 773 772 769 769 773 775 773 772 774 777 779 783 785 787 790 791 794 796 798 801 803 805 808 809 812 814 815 817 819 820 822 823 824 825 826 827 828 829 830 831 833 834
765 783 786 770 764 766 763 767 776 772 762 760 762 761 765 778 782 781 786 789 797 804 798 793 790 778 773 772 769 771 770 767 768 769 772 774 775 776 775 773 772 771 774 776 775 773 771 771 773 774 774 772 772 776 778 781 784 785 787 789 791 794 796 799 801 803 806 807 809 811 813 815 817 819 820 821 823 823 824 825 826 827 828 829 831 832
765 778 786 775 764 769 775 775 776 776 772 769 771 771 771 773 775 779 779 776 786 798 800 804 800 778 768 767 767 770 769 767 770 771 773 774 774 777 776 773 771 770 771 773 773 772 771 771 771 772 775 773 771 774 777 779 782 783 785 787 788 791 793 796 798 801 803 805 807 809 811 813 815 817 819 820 821 822 822 824 824 825 826 827 829 830
767 773 780 778 772 776 781 776 772 775 774 774 775 773 774 776 778 790 793 777 776 789 792 800 803 784 768 766 766 767 769 768 770 773 774 773 774 776 775 774 773 769 769 769 768 768 767 768 770 771 774 773 771 773 775 777 780 782 784 785 786 788 790 793 795 798 801 803 805 807 808 810 812 814 816 817 819 820 820 822 823 824 825 826 827 828
762 769 777 781 778 777 778 773 772 774 771 772 773 770 772 775 778 792 800 786 780 785 783 790 800 788 773 769 768 769 769 769 771 773 774 773 772 774 775 775 774 771 769 767 766 765 765 766 770 771 771 772 771 772 774 776 778 780 782 783 785 787 788 790 792 795 798 800 802 804 806 808 810 812 813 815 816 817 818 819 821 822 823 824 825 827
764 773 782 786 781 775 774 771 770 771 772 774 772 770 773 776 776 782 785 785 789 788 785 795 801 790 778 772 771 772 771 770 771 771 773 773 770 772 775 776 775 773 770 768 766 766 766 767 770 771 771 770 770 771 773 775 776 778 780 781 783 785 787 788 790 792 795 797 799 802 804 806 807 809 810 812 813 814 816 817 819 820 821 823 823 825
769 778 783 790 792 787 785 784 780 776 776 776 772 773 777 776 778 781 779 784 794 786 784 799 800 788 781 775 771 773 772 770 770 769 771 772 770 772 774 775 776 775 772 771 769 767 767 768 769 771 771 770 769 771 772 774 775 776 778 780 781 783 785 787 788 790 792 794 796 799 801 803 804 806 807 809 810 812 813 815 816 818 819 821 822 823
768 776 779 788 798 800 798 795 788 780 775 774 774 777 779 777 780 785 784 791 798 788 786 796 793 783 778 773 771 772 771 770 769 767 768 769 770 771 773 776 776 775 775 773 771 769 768 769 769 771 772 771 770 771 772 773 774 775 776 778 780 782 784 785 787 788 791 792 794 795 797 799 801 803 805 806 808 809 811 812 813 815 817 818 820 821
766 773 773 781 788 789 789 785 778 775 776 779 781 780 779 778 779 783 788 794 793 788 790 789 784 783 779 772 771 770 769 770 769 766 768 769 769 771 773 776 775 775 775 773 772 771 770 769 769 770 771 772 771 771 771 772 773 775 776 777 778 781 782 784 785 786 788 790 792 793 794 796 798 800 802 804 806 807 808 810 811 812 814 816 817 819
770 775 773 777 779 776 777 776 773 775 777 779 782 781 779 780 780 783 788 788 786 792 797 786 781 788 783 771 769 769 768 770 768 767 769 769 770 771 773 774 773 773 774 773 773 773 771 771 770 769 770 771 771 772 771 772 773 773 775 776 778 779 781 783 784 785 786 787 789 791 792 794 796 798 800 802 804 805 806 808 809 810 812 813 815 816
769 774 771 773 776 774 774 775 774 776 777 777 779 780 780 781 783 784 784 780 781 792 794 783 782 788 781 771 768 767 767 768 768 768 768 768 770 771 772 772 773 774 774 774 774 773 771 771 770 769 769 769 770 771 771 771 772 772 773 774 776 778 779 780 782 783 784 784 785 788 790 792 793 795 797 800 801 803 805 806 807 808 810 811 812 814
765 773 772 772 777 777 775 776 775 776 778 778 777 777 777 779 779 780 780 775 777 783 781 777 781 781 773 768 766 765 765 767 767 768 768 769 771 772 772 772 773 774 774 773 773 771 771 770 769 768 768 768 768 769 769 770 770 771 772 772 774 775 776 778 780 780 782 783 783 785 787 790 792 793 794 796 798 800 802 803 805 806 808 809 811 812
766 775 774 772 779 780 776 777 778 778 780 782 780 776 775 778 778 778 779 776 778 780 776 776 781 778 768 764 765 766 766 767 769 769 769 770 771 772 772 772 772 773 773 772 771 770 769 769 768 767 767 767 767 767 767 768 768 769 770 770 771 772 774 776 777 778 779 780 781 783 785 787 789 791 792 794 796 797 799 801 802 804 805 807 808 810
766 774 774 776 785 783 774 776 778 775 778 782 782 778 777 779 779 776 775 775 777 779 779 779 780 776 769 766 766 768 767 767 770 770 770 770 770 771 772 771 772 773 772 770 770 769 768 768 768 767 767 767 766 766 766 766 766 767 767 768 769 769 771 773 774 775 776 777 779 781 782 784 786 788 790 791 793 795 797 799 800 802 803 804 806 808
762 771 773 780 789 783 774 776 776 778 788 791 781 772 771 772 773 772 771 771 771 774 778 778 773 768 766 766 767 768 768 768 769 769 770 771 770 770 770 770 771 771 770 769 768 767 767 767 767 767 767 766 765 765 765 764 764 765 765 766 766 766 768 769 770 772 773 774 776 777 779 781 782 785 787 789 791 793 795 797 798 799 801 802 804 806
762 767 769 775 785 783 776 776 780 791 800 790 770 762 764 766 768 771 770 768 766 767 769 768 764 762 764 766 767 769 768 768 769 769 769 769 769 769 769 768 769 769 767 767 766 765 765 764 765 766 766 765 765 763 763 763 763 763 763 763 764 764 765 766 767 769 770 771 772 774 776 778 779 781 784 786 789 791 792 794 796 797 799 800 802 803
763 767 768 772 779 780 775 782 799 805 792 771 760 759 761 763 764 767 767 763 763 764 764 764 763 761 762 764 765 767 768 767 768 767 767 767 767 768 768 767 767 766 766 766 765 764 764 763 764 764 764 764 763 762 762 761 760 760 760 760 761 761 761 762 763 764 765 767 769 771 772 774 776 779 781 784 787 788 790 792 793 795 797 798 799 801
760 766 768 772 778 781 783 792 803 794 771 758 761 762 762 765 767 770 771 765 761 761 762 763 762 758 760 764 764 766 767 766 766 765 765 766 765 766 767 766 765 765 765 764 763 763 763 763 763 763 763 763 762 761 760 759 759 758 757 757 758 758 758 758 758 759 761 763 766 768 769 771 773 776 778 781 784 786 788 790 791 793 795 796 797 798
753 762 768 774 778 782 786 785 782 779 771 764 762 760 759 762 763 768 772 765 756 756 758 759 760 758 760 765 765 765 766 767 768 765 763 764 764 764 764 764 763 763 762 761 761 761 762 762 761 761 762 761 760 759 758 758 757 756 755 755 754 754 755 755 754 755 756 758 762 764 765 767 770 773 776 779 781 784 786 788 789 791 792 794 795 796
751 758 766 773 775 777 785 785 782 787 785 770 759 753 751 753 753 758 768 765 755 752 754 756 759 760 762 766 766 765 767 770 770 765 762 764 764 763 763 762 761 761 760 759 760 759 759 760 760 760 760 760 759 758 757 756 755 754 753 753 752 752 752 752 751 752 752 755 758 760 762 765 768 771 774 776 779 781 784 785 787 789 790 791 793 794
753 755 760 769 773 775 785 791 788 787 778 764 757 753 750 752 750 756 772 772 757 751 753 755 758 761 762 765 765 766 770 771 768 764 763 764 764 763 764 763 761 760 760 759 759 759 758 759 759 759 759 758 757 757 755 754 753 752 751 751 751 751 751 750 750 750 752 754 755 757 759 762 766 769 772 775 777 779 781 783 785 786 788 789 791 792
758 758 762 770 773 772 781 786 779 771 765 758 755 753 751 750 751 768 789 781 758 752 755 755 758 760 760 762 764 766 769 769 766 765 764 763 763 763 763 763 762 761 760 759 759 759 759 759 759 758 757 757 757 756 755 753 752 751 750 750 751 751 751 750 750 750 752 753 753 754 757 761 764 767 771 773 775 777 779 781 783 785 786 788 789 791
761 761 763 769 769 768 776 781 773 763 758 754 752 751 750 752 762 781 789 773 755 754 755 753 758 759 758 761 763 763 763 763 764 765 764 763 764 763 762 763 762 761 760 760 760 760 760 759 758 757 757 757 756 756 755 753 752 751 750 750 751 751 751 751 750 750 752 754 754 754 757 760 764 766 769 771 773 775 777 779 781 783 784 786 788 789
764 765 766 768 769 766 768 775 775 767 757 751 751 750 751 761 776 778 768 757 754 755 754 754 757 757 758 760 760 760 761 761 763 765 764 764 765 763 762 762 762 761 761 760 761 761 760 759 758 758 757 757 757 756 755 754 753 752 752 752 752 752 751 751 751 752 753 754 755 756 757 760 763 765 767 769 771 773 775 777 779 781 782 784 785 786
757 765 768 764 763 767 770 776 783 777 760 749 753 757 758 764 768 762 754 753 754 753 753 756 756 755 757 758 758 759 761 762 765 766 765 764 764 762 762 762 762 762 761 760 761 762 761 760 759 758 758 758 758 757 755 754 753 752 753 754 754 754 753 752 753 753 754 755 756 758 760 762 763 764 766 767 769 772 773 775 777 779 780 782 782 783
749 758 763 757 756 767 775 774 771 764 752 746 751 756 755 754 752 751 752 754 753 752 753 755 754 755 756 757 757 759 760 763 766 766 766 765 763 762 762 762 762 762 761 761 762 762 762 762 760 759 759 759 759 758 757 755 754 753 754 755 756 755 754 754 754 755 755 755 757 760 762 763 764 765 766 767 769 771 772 774 775 777 778 780 780 781
749 750 754 753 750 755 760 757 752 747 744 743 745 747 748 748 748 749 751 752 752 752 752 752 754 755 754 756 758 759 760 763 765 766 766 765 763 763 763 762 763 763 763 763 763 763 764 763 761 760 760 760 761 760 759 758 756 755 755 756 757 757 757 756 756 757 757 758 759 760 761 762 764 767 768 768 770 771 772 774 774 776 777 778 779 781
745 744 748 749 747 748 750 748 747 746 744 742 743 744 745 747 748 749 750 751 752 751 751 752 753 753 754 756 757 758 761 763 764 765 765 763 763 763 763 763 764 764 765 765 764 764 764 763 762 761 761 761 762 761 761 760 759 758 758 757 758 759 759 759 759 760 760 761 761 762 762 763 765 768 769 769 770 771 773 774 775 776 777 778 780 782
744 744 744 747 751 754 754 748 744 746 746 743 744 745 745 746 748 749 750 751 751 750 751 752 752 753 755 756 757 759 761 762 763 765 764 763 764 763 763 764 765 766 766 766 765 765 764 764 763 763 762 763 763 762 762 762 760 760 759 759 760 761 761 761 762 763 763 763 764 764 763 764 766 768 768 769 770 772 774 776 776 777 778 779 781 783
744 745 745 747 750 752 752 747 743 744 745 743 743 746 746 747 748 749 749 749 750 751 751 752 753 754 755 756 758 760 762 763 764 764 763 764 764 763 764 766 767 767 768 768 767 766 765 765 765 765 765 765 764 764 764 763 762 762 762 762 763 763 763 763 764 765 765 766 765 765 765 766 768 769 770 771 772 774 776 777 778 778 779 781 782 783
740 743 744 746 748 748 748 747 747 748 750 747 745 744 744 745 747 749 750 750 750 751 752 753 754 754 755 758 760 761 763 764 764 763 764 764 764 764 766 766 767 769 771 770 768 767 765 766 767 767 767 767 766 766 765 765 765 764 764 765 765 765 765 765 765 766 767 767 768 768 768 769 770 771 772 773 775 776 778 779 779 780 781 782 783 785
739 741 740 744 750 750 745 743 745 749 751 748 743 742 743 744 746 749 750 750 751 752 753 755 756 755 755 758 759 761 764 765 764 764 764 764 765 766 767 767 768 770 770 769 769 767 767 769 769 768 768 767 767 767 767 766 767 767 766 767 767 767 767 767 767 768 769 770 770 771 771 771 772 774 775 776 777 778 780 781 782 783 783 784 785 786
734 736 735 740 747 745 738 734 736 741 743 741 738 738 741 742 744 748 750 750 750 750 751 754 757 757 758 759 759 761 763 763 764 764 764 765 767 768 768 769 769 769 769 770 771 771 771 771 770 769 768 768 768 768 768 768 768 768 768 768 769 769 769 769 769 771 772 773 773 774 774 775 776 777 778 779 780 781 783 784 785 786 786 787 786 786
Wind_Speed
4 5 6 6 6 7 8 9 10 8 6 7 6 5 5 6 3 2 3 3 0 5 5 4 8 9 9 6 4 5 6 8 8 7 9 10 11 10 9 8 8 9 8 9 11 10 11 11 11 11 11 12 12 12 13 13 13 12 13 13 13 13 12 12 11 11 11 10 11 11 11 11 11 11 11 11 11 10 10 10 10 10 9 8 7 6
4 7 5 5 5 5 7 8 8 8 8 9 8 6 6 7 2 4 3 3 2 4 4 3 8 10 6 4 4 6 7 7 5 6 8 9 10 7 8 9 9 9 8 8 9 10 11 11 12 12 11 13 13 14 14 13 13 13 13 14 13 14 13 13 12 12 11 11 11 11 11 12 12 13 12 11 11 11 11 10 10 9 9 8 7 5
6 7 1 1 2 4 7 8 9 10 10 9 8 7 6 4 1 4 4 4 3 3 5 6 10 8 2 2 3 6 7 6 4 2 7 10 11 7 6 7 9 10 9 8 9 10 11 11 12 12 11 13 13 14 14 13 13 13 13 15 14 14 14 13 13 12 12 12 11 10 11 13 13 12 11 11 11 10 11 11 10 9 9 8 7 6
4 1 4 3 2 6 8 8 10 9 9 9 8 8 7 4 2 1 4 6 4 4 6 9 10 5 2 1 1 6 7 5 6 5 6 7 9 9 7 8 10 12 11 10 10 10 11 12 13 12 12 13 13 13 13 13 13 13 13 14 14 14 14 14 13 12 12 12 10 10 11 11 10 11 10 10 10 10 11 11 10 9 9 8 7 6
3 6 4 2 4 7 8 8 10 9 7 9 10 9 8 5 3 4 1 4 4 5 5 9 8 2 2 2 3 6 6 6 6 5 5 4 5 6 7 9 9 9 8 8 9 9 10 12 13 12 13 13 13 13 13 13 13 12 13 13 13 14 14 14 15 13 13 13 12 10 10 10 9 11 11 11 12 12 11 11 11 10 9 9 8 7
0 5 1 3 5 9 8 7 10 9 5 7 10 9 8 6 5 5 3 4 5 4 2 6 7 1 3 4 5 5 5 7 6 5 4 3 2 5 5 6 7 7 6 7 7 8 10 11 12 13 13 13 13 13 13 13 13 12 14 14 13 13 14 14 16 15 14 15 14 13 13 12 12 12 13 13 13 13 12 12 11 10 10 10 9 7
2 3 1 2 3 8 9 7 9 10 7 3 5 5 7 8 7 6 6 6 5 1 2 3 6 3 2 4 5 4 5 7 6 5 4 1 4 6 6 6 6 6 7 7 7 8 9 11 13 13 13 13 12 13 13 13 13 13 14 14 13 13 13 13 16 16 16 16 16 15 14 13 13 13 13 13 12 12 12 11 10 10 10 10 9 8
1 2 3 2 3 7 8 4 6 10 8 1 4 2 5 6 6 5 5 5 3 1 3 2 4 4 2 4 3 2 4 6 6 5 5 4 6 8 9 9 7 6 6 7 8 9 9 10 12 13 13 13 12 13 14 13 14 15 15 15 13 13 13 13 15 16 15 15 15 15 14 13 14 14 13 13 11 11 11 10 10 10 10 10 9 8
2 2 1 3 6 4 1 4 3 7 4 2 1 2 3 3 4 4 5 3 2 3 2 3 2 4 2 4 3 3 1 4 6 5 6 7 8 9 11 12 9 7 7 8 8 9 8 8 11 13 13 13 13 13 14 14 14 15 16 15 14 13 13 14 15 16 15 14 14 14 14 13 13 13 13 13 11 10 10 9 9 8 9 10 9 8
2 1 1 5 6 2 6 6 2 3 0 3 2 2 2 3 4 4 4 2 2 5 2 2 2 5 2 3 3 2 2 2 4 6 6 8 9 10 12 13 10 8 8 8 7 8 10 11 13 14 13 13 14 14 14 14 15 16 16 16 15 14 13 14 15 15 15 14 13 14 13 13 13 12 13 13 12 10 10 9 9 8 8 9 10 9
1 2 2 3 2 4 5 4 2 0 2 5 5 3 2 2 2 3 3 3 5 4 1 3 2 4 3 1 2 2 1 2 3 5 5 7 9 11 13 12 10 9 8 6 6 7 12 16 16 14 13 13 14 14 15 15 15 16 17 17 17 15 14 14 15 16 16 14 13 13 13 13 13 12 12 13 12 11 10 10 9 9 9 9 10 10
4 5 4 2 2 1 4 5 3 2 3 4 4 2 3 3 2 4 3 3 6 2 2 2 2 4 3 1 3 2 2 2 3 5 7 8 10 11 12 10 9 9 7 7 7 7 9 13 14 13 13 13 14 15 15 15 15 16 17 18 18 16 15 15 16 16 16 14 13 13 12 12 13 12 12 12 12 12 11 10 10 9 9 9 9 10
4 3 4 5 3 4 5 4 3 2 3 5 5 3 5 4 3 5 4 4 4 1 3 1 2 4 2 3 3 1 1 1 1 3 6 10 11 12 11 9 9 8 6 7 7 7 9 10 12 14 14 14 15 16 16 16 16 16 17 19 19 18 17 16 16 16 16 15 14 13 13 12 12 12 12 12 13 12 11 11 11 10 10 10 10 10
4 6 6 5 4 3 6 4 2 2 3 4 4 3 5 5 5 5 4 4 2 2 3 0 2 3 1 2 2 1 1 1 1 1 3 8 11 12 11 10 11 9 7 7 7 9 11 11 12 14 15 15 16 17 18 17 16 16 17 19 19 19 18 17 17 17 16 15 14 14 13 13 13 13 13 13 13 13 12 11 11 11 11 11 11 11
1 4 5 1 2 3 5 5 5 4 3 2 2 4 4 4 4 5 3 4 2 1 1 3 2 3 2 1 1 1 1 1 2 2 0 6 10 9 8 8 9 9 9 9 9 11 12 12 13 14 15 16 16 17 18 18 17 16 17 19 20 20 20 19 18 18 17 16 15 15 14 13 13 13 13 13 13 13 13 12 11 11 11 10 10 10
4 2 6 4 2 1 2 2 4 7 4 2 1 4 3 2 3 4 4 5 6 4 1 2 3 1 2 1 3 1 1 0 1 2 3 2 7 8 3 4 6 6 7 9 10 10 9 11 13 14 15 16 16 17 18 18 19 18 17 19 20 20 20 20 19 18 18 17 16 16 15 14 14 14 14 14 13 13 12 12 12 11 11 10 10 10
3 3 7 4 3 3 3 2 1 5 3 1 4 3 3 3 4 5 3 2 5 6 2 1 3 1 2 2 3 2 2 1 1 3 6 5 5 8 5 3 6 6 6 8 10 9 8 9 12 14 15 16 16 17 18 19 20 19 19 19 20 20 20 20 20 19 18 17 17 16 16 16 15 15 15 14 14 13 13 12 11 11 11 11 10 10
3 2 6 4 3 5 1 2 1 1 4 4 2 2 4 1 4 4 3 3 4 5 1 1 4 3 1 1 2 2 1 2 3 5 7 8 7 8 8 9 9 7 6 7 7 8 7 7 10 12 14 16 16 17 19 19 20 20 20 20 21 21 21 21 20 20 19 18 17 17 17 17 16 16 15 14 14 14 13 13 12 12 12 11 11 10
3 2 6 5 2 4 3 5 3 3 1 4 3 2 1 4 3 2 3 4 3 4 3 1 2 4 2 2 1 1 2 4 5 6 7 8 9 7 6 9 10 9 7 5 6 7 6 7 10 13 14 15 16 17 18 19 19 19 20 20 21 21 21 21 20 20 19 19 18 18 18 19 17 17 16 14 14 14 14 14 13 13 12 11 12 11
2 4 3 6 3 3 4 5 4 2 3 1 2 3 2 4 4 2 3 4 4 5 4 1 2 1 2 3 2 2 4 4 5 6 7 8 9 7 5 4 7 7 6 4 5 6 6 8 12 13 14 14 15 16 17 18 19 19 19 20 20 20 20 20 20 20 20 20 19 18 18 19 19 17 16 15 14 14 14 14 14 13 12 12 12 12
2 4 1 4 5 4 3 1 4 4 2 3 4 4 2 2 3 3 4 4 4 6 4 3 5 1 5 2 1 3 4 4 6 6 6 7 8 7 5 2 2 4 4 5 6 7 8 11 12 11 12 14 13 14 16 17 18 18 18 19 20 21 21 21 20 20 20 20 19 19 19 20 20 19 18 16 15 15 15 14 14 13 13 12 12 12
3 3 3 2 3 2 1 3 3 4 4 5 5 4 4 3 3 5 5 3 3 5 5 5 6 2 4 2 2 3 2 4 6 6 5 6 7 6 5 4 3 4 3 3 5 7 8 9 10 9 11 13 13 14 16 16 16 17 18 18 19 20 21 21 20 19 19 19 19 20 20 20 20 20 19 18 17 16 16 15 14 14 13 13 13 12
1 3 3 2 2 3 4 4 1 2 3 5 4 4 4 4 5 6 6 3 2 4 4 5 7 1 4 3 3 3 3 4 5 5 5 5 5 6 5 5 5 4 3 3 4 5 5 5 7 8 11 12 13 14 16 16 16 17 18 18 18 19 20 21 21 20 19 19 20 20 20 20 20 20 20 19 18 18 17 16 15 15 14 13 13 13
1 2 2 1 0 1 4 4 3 2 4 5 3 1 3 4 4 6 6 4 5 6 4 6 7 1 3 3 3 3 3 3 3 3 4 4 4 5 5 5 5 5 3 3 3 3 4 3 4 7 10 11 12 13 15 16 16 16 17 18 18 19 20 20 20 20 20 20 20 20 20 20 20 20 21 21 19 18 18 17 16 16 15 14 13 13
3 2 2 4 3 3 4 5 5 4 4 4 1 1 3 4 3 5 4 2 6 7 4 6 6 1 3 1 1 1 2 3 2 2 2 2 3 4 4 5 4 5 5 4 3 2 3 2 2 5 9 11 11 11 13 15 16 16 17 18 19 19 20 20 19 19 20 20 20 20 20 21 21 21 21 21 20 20 19 18 17 16 16 16 15 13
3 2 3 5 5 4 3 2 1 1 2 2 1 2 3 4 4 4 4 4 5 3 2 7 6 1 2 2 2 1 2 2 2 1 1 2 3 3 4 4 4 4 4 4 4 3 2 2 2 4 6 8 9 11 12 13 14 15 16 18 19 18 19 19 20 19 19 19 19 20 20 21 21 21 21 21 21 20 19 19 18 17 17 16 16 15
2 3 3 4 6 5 5 3 3 3 3 1 1 3 4 3 4 5 4 4 4 3 4 5 5 5 5 3 1 1 2 2 2 1 1 2 3 4 4 4 3 3 4 4 4 4 3 2 2 4 5 6 8 10 11 12 13 14 15 17 18 18 18 18 20 21 21 20 19 19 20 21 21 20 20 21 20 20 19 19 19 18 17 17 17 16
3 4 4 5 5 3 2 1 1 3 4 3 2 4 3 3 4 6 5 3 4 5 4 1 2 6 8 5 4 4 3 3 2 1 2 2 3 4 3 3 3 3 4 4 4 5 4 4 3 3 5 5 7 9 10 12 13 13 14 16 16 17 18 19 20 20 21 21 20 20 20 21 20 20 19 19 19 19 19 19 19 19 18 18 18 18
5 4 4 6 5 2 2 2 3 4 4 3 4 4 4 5 6 6 6 4 3 5 5 4 4 7 7 7 6 5 4 4 2 2 2 2 3 3 3 3 3 4 4 4 4 4 4 4 4 4 5 5 6 8 9 11 13 13 14 15 16 17 19 19 20 20 20 20 21 21 20 20 20 20 19 18 18 19 19 19 18 18 18 18 17 17
5 2 3 6 6 5 5 4 4 6 6 5 6 5 5 6 7 7 8 7 6 8 9 8 9 9 7 7 5 4 4 3 1 1 1 1 2 2 3 3 3 3 3 4 4 4 4 4 4 4 5 5 6 7 8 10 12 14 15 16 17 18 19 19 20 21 21 20 21 21 20 20 19 19 20 20 19 20 20 20 19 18 18 18 17 17
4 2 4 6 6 6 7 6 7 8 7 7 7 6 6 7 8 8 8 7 7 8 8 8 10 8 3 2 2 2 2 2 2 2 1 0 1 2 3 3 2 3 3 3 4 4 4 4 4 4 5 5 6 7 8 9 11 12 15 18 19 18 19 20 21 22 22 21 20 20 20 19 18 18 19 19 19 19 19 20 19 19 18 18 18 18
5 3 3 4 7 6 6 8 9 8 8 9 9 9 9 8 8 7 6 6 6 7 7 7 7 3 2 2 1 2 2 3 3 2 1 1 2 2 4 3 2 2 3 3 3 3 4 4 5 5 6 6 7 7 8 9 10 11 14 16 18 19 18 19 21 22 22 22 21 19 19 20 19 18 18 18 18 18 18 18 18 18 18 18 18 18
6 5 3 4 7 4 4 6 8 7 8 9 6 6 8 8 8 7 5 6 6 6 6 6 4 4 3 1 3 3 3 4 2 1 1 2 3 3 4 3 2 1 3 3 3 3 3 4 5 6 7 7 8 8 8 9 11 12 13 15 17 18 19 19 20 22 22 22 22 21 20 20 20 20 20 19 19 18 17 17 18 18 17 17 17 17
7 8 5 3 6 4 2 2 6 8 8 3 1 2 4 4 6 7 6 6 5 5 6 6 6 4 2 3 4 3 3 2 2 2 2 3 4 4 4 3 3 2 3 4 4 3 3 4 5 7 8 9 9 9 10 10 11 13 13 14 15 17 19 20 21 23 24 23 23 22 21 20 20 20 20 19 19 18 17 17 17 18 17 16 16 16
7 8 5 3 6 5 1 3 7 8 5 1 4 1 2 3 5 7 7 6 5 7 8 8 8 6 4 3 3 2 2 1 1 2 3 4 4 3 3 3 3 3 4 4 4 4 5 6 7 8 9 9 10 10 10 10 12 14 14 15 16 17 19 20 22 24 24 23 23 22 22 21 20 19 18 17 16 16 16 16 17 17 17 17 17 17
7 6 5 4 5 5 4 5 7 6 4 2 4 3 2 3 5 6 7 5 5 8 8 8 7 5 2 3 2 1 1 1 2 3 3 4 3 2 3 3 3 4 4 4 4 5 6 7 8 9 9 10 11 10 10 11 12 13 15 16 17 18 19 20 23 24 24 23 24 23 22 22 20 19 17 15 15 15 15 16 16 17 17 17 16 16
7 6 5 5 5 5 7 7 6 7 8 7 5 5 4 5 5 5 6 3 3 6 6 6 6 3 2 2 2 1 0 3 4 3 4 4 3 2 3 3 3 4 4 5 6 6 7 8 8 9 9 10 11 9 9 11 13 13 13 14 16 17 18 19 22 24 23 24 25 24 23 23 20 18 17 15 14 15 14 14 15 15 15 16 16 17
7 5 5 6 5 4 7 8 6 7 7 3 1 4 5 5 3 3 6 4 3 3 4 4 3 1 3 3 3 2 2 4 4 2 4 4 2 2 3 3 3 4 5 6 7 7 7 7 8 8 9 9 8 8 9 11 12 12 11 12 13 15 15 16 19 21 21 23 25 24 23 23 19 16 16 15 14 14 14 13 13 13 14 14 15 16
7 5 5 6 5 4 6 7 6 7 4 1 2 5 5 3 3 3 5 4 3 3 1 2 2 1 3 4 4 3 3 4 2 2 4 3 2 1 3 3 4 5 5 5 6 7 7 7 8 7 6 6 7 8 9 9 10 10 10 11 12 13 14 15 16 18 20 20 21 19 16 16 15 13 13 14 14 14 13 13 13 12 11 12 12 13
7 5 5 7 7 5 6 7 7 6 1 4 5 5 5 3 4 5 6 2 4 4 1 1 1 2 4 4 4 4 4 4 2 3 4 2 1 0 2 3 4 5 5 5 7 8 8 7 7 6 4 4 7 8 8 7 6 6 6 9 11 13 14 13 11 13 16 14 13 13 13 11 11 12 12 13 13 12 12 11 11 10 10 10 10 10
7 6 6 7 7 6 6 7 7 4 2 5 6 6 6 5 5 6 4 1 3 2 2 1 1 2 4 4 4 4 2 1 2 3 3 2 1 1 1 3 4 4 5 6 8 9 9 7 5 4 4 6 7 7 6 5 4 4 3 1 2 2 4 6 6 8 10 8 7 9 11 10 10 11 13 12 12 11 12 12 11 10 10 9 9 9
6 6 6 6 7 6 5 6 8 4 2 5 6 7 6 5 4 3 0 2 1 1 2 1 2 2 4 4 4 2 0 2 3 3 3 2 1 2 1 3 5 5 5 6 7 8 8 6 4 4 6 7 7 6 6 6 6 7 7 5 4 4 3 1 3 5 8 9 7 6 7 8 10 11 12 13 12 12 12 12 11 10 10 10 10 11
5 5 7 6 5 5 5 6 7 4 2 8 8 6 5 5 1 1 1 1 0 0 1 2 2 2 4 5 4 3 2 3 4 2 2 2 1 1 2 3 5 6 6 6 6 8 8 6 6 7 8 8 7 5 6 8 10 10 9 8 5 2 2 1 2 5 7 7 7 6 6 7 7 7 8 9 10 12 12 12 12 11 11 12 13 14
5 5 7 4 3 5 6 5 3 1 4 10 8 3 3 3 2 2 1 0 1 1 2 2 2 2 4 4 4 4 4 4 3 3 2 2 1 1 2 3 5 7 7 7 7 8 7 6 6 7 7 7 6 5 7 8 10 12 12 10 7 4 5 5 5 6 7 8 8 8 9 7 4 5 6 6 7 9 10 11 11 10 10 12 13 14
4 2 4 3 3 4 4 2 1 2 6 10 6 1 2 3 3 1 2 1 0 1 1 2 2 2 3 4 4 4 4 3 4 3 3 2 1 1 2 3 5 6 7 7 8 8 6 5 6 7 7 8 8 8 9 10 11 12 12 10 8 7 8 9 9 10 11 11 10 10 10 10 7 6 6 6 6 6 8 9 10 10 11 12 12 12
1 2 3 3 2 3 1 1 2 3 5 8 6 2 2 3 3 1 2 1 1 0 1 2 2 1 3 4 3 3 4 4 4 4 3 3 1 1 1 3 5 6 7 7 8 9 6 5 6 7 8 9 9 8 9 10 11 11 11 10 9 8 9 10 10 11 11 12 12 11 11 11 11 9 7 6 5 3 4 6 7 8 10 11 10 9
2 3 5 3 2 3 3 4 5 5 6 8 7 4 2 2 3 3 2 1 0 1 1 1 1 1 2 3 3 3 4 4 4 4 4 3 2 1 2 3 5 7 8 8 9 9 7 6 6 7 8 9 9 8 8 9 11 11 10 10 9 8 9 10 10 10 10 10 11 12 12 13 12 11 10 9 9 8 5 4 5 7 7 7 6 5
4 5 5 4 5 3 1 4 5 4 4 5 5 4 4 4 5 4 2 1 1 1 1 0 1 2 3 3 3 4 5 5 5 4 4 3 2 2 3 3 4 7 9 9 8 8 8 8 7 7 8 9 9 9 8 9 9 9 9 9 8 8 10 11 11 11 11 10 10 11 13 14 15 16 15 14 13 12 11 11 11 11 9 7 6 7
5 6 6 6 7 5 2 4 5 4 4 5 7 5 4 4 6 6 4 3 3 3 2 2 2 2 3 4 4 5 5 5 5 4 4 4 3 3 4 4 5 6 8 8 8 10 10 9 7 8 9 9 9 10 10 10 9 9 8 7 7 8 10 11 12 12 12 11 10 11 12 13 15 18 20 20 19 17 15 13 11 12 11 9 8 8
5 7 6 5 7 7 4 7 8 4 2 5 9 9 7 6 6 7 6 5 6 5 4 4 3 3 4 6 6 5 5 5 5 5 5 5 5 5 5 4 5 6 8 9 10 11 11 9 8 8 10 10 10 9 9 10 10 9 8 8 8 9 10 11 13 12 12 11 11 10 11 13 14 15 18 21 23 23 21 18 14 13 12 11 9 9
6 6 7 6 6 4 1 7 10 5 1 2 5 8 9 8 7 8 7 6 6 5 5 5 6 6 6 5 5 6 5 6 7 6 5 6 7 6 5 4 5 7 9 10 10 11 11 10 9 10 11 10 10 9 10 10 9 9 8 9 10 11 11 11 12 12 11 11 10 10 10 12 12 12 13 15 18 20 22 22 22 20 17 15 13 12
Wind_Direction
219 230 221 235 238 230 229 234 254 281 292 278 273 266 278 281 269 85 95 115 16 283 281 287 294 299 297 303 317 321 320 293 273 244 221 190 188 183 173 201 197 199 214 171 162 176 170 166 163 161 162 158 156 157 157 160 164 166 164 161 164 165 162 162 162 166 169 168 169 169 167 165 163 164 168 170 169 168 162 158 161 162 159 152 145 142
211 243 236 237 256 253 239 236 242 253 251 250 256 255 260 268 264 97 114 137 146 281 301 301 292 296 298 310 325 329 323 315 300 236 208 168 177 176 160 194 206 203 204 165 162 177 172 168 165 163 164 160 158 158 160 162 164 166 164 163 165 164 164 166 166 169 173 172 173 172 169 169 167 169 172 171 170 167 163 162 162 162 164 159 150 148
210 234 209 107 256 235 227 228 220 225 233 235 239 246 254 256 221 113 140 169 174 274 311 318 303 304 340 342 336 353 347 348 2 199 179 166 170 159 157 193 204 206 196 172 181 184 174 174 170 167 167 165 162 160 161 162 164 167 166 164 166 164 165 168 169 172 174 173 173 171 171 173 170 170 172 169 167 166 165 168 165 164 169 165 161 162
228 149 79 94 211 213 211 213 212 218 225 227 227 232 243 246 256 253 167 175 200 260 298 306 296 293 87 119 34 37 29 33 46 95 141 164 157 142 174 209 208 202 191 185 193 185 176 178 174 172 169 166 164 162 163 164 166 169 168 165 165 164 164 168 172 174 172 168 167 170 173 174 166 165 169 165 166 169 168 171 173 172 172 171 174 173
306 58 56 212 215 216 208 200 209 216 213 218 225 230 242 247 267 289 196 172 216 227 266 297 291 267 93 48 68 67 63 66 68 99 114 111 125 148 188 207 215 208 194 197 196 183 179 179 176 175 170 167 166 165 167 168 169 170 167 166 164 163 165 170 172 171 167 164 165 169 171 169 163 164 170 170 172 175 174 176 178 178 178 178 180 178
66 67 13 239 208 213 211 200 209 221 217 204 213 230 260 279 277 270 230 219 245 220 222 303 307 44 95 50 53 72 76 73 85 124 114 80 163 215 214 204 220 220 204 209 204 187 181 179 175 172 171 172 168 168 170 169 169 167 163 164 163 163 167 170 171 170 167 167 170 172 173 173 171 171 175 178 178 177 179 180 176 178 182 183 184 181
96 99 243 263 203 203 213 214 202 218 240 190 167 218 259 269 262 249 229 241 276 318 131 285 312 338 92 71 60 68 81 88 98 121 125 136 229 238 242 229 228 224 210 209 207 195 185 181 174 171 176 179 173 169 170 169 167 163 161 162 161 162 166 168 169 171 170 171 174 177 178 178 177 175 177 181 181 178 180 180 174 176 180 183 186 182
129 171 193 245 233 202 209 213 182 213 249 33 91 193 229 237 235 225 226 242 290 351 162 195 306 314 26 66 79 95 92 108 116 127 153 199 227 235 243 242 244 245 224 209 202 196 192 182 173 176 181 182 178 169 167 169 165 161 161 161 159 160 164 167 169 172 174 174 177 181 180 180 180 179 175 177 178 176 177 177 174 177 178 180 185 181
108 228 192 273 265 217 112 47 132 208 247 42 79 209 199 219 213 205 229 244 294 280 219 133 314 302 17 72 121 169 163 133 137 157 185 206 221 233 239 241 254 262 238 223 207 190 185 177 178 187 184 180 179 169 168 170 163 161 162 159 159 160 164 169 169 171 178 179 179 183 182 179 182 180 175 176 176 173 175 176 175 178 177 177 183 183
56 346 323 286 289 26 58 55 102 224 296 102 165 158 146 201 202 213 247 263 260 267 292 56 322 308 9 92 135 168 215 174 151 171 194 207 211 224 235 239 248 248 230 228 218 189 173 176 193 195 182 179 177 170 170 169 164 163 162 161 162 162 165 169 170 173 180 184 183 185 184 180 180 177 175 177 177 176 177 179 180 181 180 180 184 186
69 118 205 261 331 56 81 89 89 13 109 151 181 165 171 214 223 250 274 295 270 254 11 27 331 315 338 69 99 94 149 146 157 168 185 219 219 218 227 233 239 234 218 214 225 212 180 179 194 192 179 181 176 171 173 169 168 167 164 165 165 164 168 169 173 177 181 187 188 187 185 182 180 176 174 177 178 180 180 184 187 186 188 187 186 188
161 163 163 134 80 114 146 125 94 114 150 195 228 248 250 229 225 255 234 246 267 261 76 15 329 294 295 38 66 66 112 143 173 176 183 215 231 229 226 226 229 231 222 206 212 226 202 184 187 187 182 182 176 174 176 172 172 169 167 169 167 167 171 171 175 179 182 189 189 189 188 186 186 183 181 181 182 184 185 189 192 187 188 189 189 191
160 135 120 120 155 228 211 161 136 163 206 249 255 249 258 247 226 248 237 231 256 53 56 348 297 280 298 57 57 81 136 144 179 205 200 207 220 230 227 219 219 222 227 228 213 210 216 195 184 186 184 182 180 179 179 177 175 172 170 172 171 172 173 174 177 179 183 188 188 190 190 188 190 189 188 188 188 190 192 192 192 187 186 188 191 194
151 128 145 161 156 207 250 238 188 187 209 247 264 252 264 271 259 256 250 250 255 63 47 278 238 274 274 91 77 98 79 28 18 294 240 221 221 225 225 219 218 208 203 227 221 208 215 201 186 189 185 183 186 183 181 181 178 175 174 175 175 175 175 177 180 181 184 187 188 190 191 190 191 190 192 193 193 194 194 194 194 191 191 192 195 199
223 135 131 133 114 160 250 281 327 313 238 217 319 290 275 284 287 291 296 292 299 61 133 195 230 300 316 152 118 61 1 5 358 21 154 224 222 221 228 229 226 213 203 214 217 214 215 202 191 192 188 188 190 187 185 181 179 179 177 178 179 179 179 180 182 184 186 188 190 190 191 193 192 192 194 195 196 196 195 195 194 194 198 198 199 201
275 101 88 54 46 106 272 316 321 295 268 133 212 259 276 328 304 293 307 327 325 300 235 212 254 340 42 152 152 175 277 58 8 42 79 185 197 185 208 280 276 257 237 233 231 227 220 207 201 197 193 193 191 190 189 182 180 183 181 181 183 182 183 184 184 186 188 189 190 190 192 194 193 194 194 194 196 197 196 196 194 196 202 203 200 200
258 112 107 118 110 84 0 20 307 283 292 163 220 234 56 25 297 283 286 307 288 275 261 248 267 188 130 188 171 187 241 152 65 59 68 71 134 146 150 227 260 263 251 245 241 238 228 216 214 206 199 198 194 192 191 186 183 184 183 184 184 185 187 188 188 189 190 191 192 192 193 194 195 196 196 196 197 197 198 199 199 200 201 203 203 202
272 142 128 156 132 109 49 330 114 289 301 285 269 77 88 194 251 270 282 261 253 266 250 163 290 291 246 221 178 197 198 110 68 58 67 71 88 113 147 191 224 235 237 248 251 248 237 227 230 223 211 203 198 195 193 190 186 185 186 187 185 186 189 190 192 193 192 193 194 195 195 197 198 199 201 200 199 199 200 201 203 205 203 203 204 205
277 245 142 165 178 131 183 238 196 151 255 314 351 58 252 263 237 205 275 290 284 284 284 89 329 293 306 27 110 159 59 62 58 59 61 63 70 84 136 182 213 223 225 248 263 257 247 236 234 230 224 211 201 199 195 192 190 188 189 191 190 189 190 192 193 193 194 195 197 198 198 199 200 202 204 204 203 203 204 203 204 206 205 204 204 203
257 273 154 153 184 177 196 236 252 173 152 228 262 209 235 297 300 286 296 302 297 286 288 327 299 248 76 29 8 60 56 38 38 52 54 55 63 68 90 165 215 220 207 215 244 255 256 250 240 230 229 221 205 199 198 194 194 195 193 193 194 192 191 194 194 193 195 196 198 199 199 200 202 203 205 207 207 207 207 206 206 207 206 205 204 202
202 269 276 154 185 221 226 303 325 317 289 254 253 244 228 246 271 280 274 265 281 290 291 292 289 13 93 80 14 64 57 33 30 36 45 54 61 64 64 56 271 255 222 201 224 238 238 244 246 237 234 232 214 200 200 199 198 200 199 196 196 194 193 195 196 195 196 198 199 199 199 200 201 203 206 207 208 210 210 209 209 210 207 205 206 204
209 256 282 225 216 243 42 47 7 337 325 305 293 295 293 282 274 270 260 233 240 279 296 293 289 345 83 91 69 68 48 39 33 23 31 45 53 59 58 41 353 304 281 252 242 241 233 232 238 239 235 232 219 203 201 202 200 201 202 201 199 196 195 196 197 196 196 198 201 201 201 201 201 203 206 208 209 211 212 211 210 211 209 207 206 206
327 278 283 312 337 12 72 90 56 346 321 294 289 304 296 279 275 275 278 289 272 276 301 291 280 327 73 47 45 46 22 25 23 17 21 31 50 57 50 39 16 344 311 288 275 265 256 231 222 241 246 231 219 209 202 202 203 203 203 204 202 199 198 198 197 196 195 197 201 203 203 204 203 204 206 209 210 211 212 212 210 210 211 211 209 207
216 263 272 298 261 136 137 155 185 236 275 268 250 289 297 288 294 292 298 317 291 274 275 266 264 272 68 30 37 32 357 350 356 14 12 9 40 54 50 44 21 6 4 318 293 275 273 246 210 243 259 241 222 213 205 203 205 205 204 204 203 201 202 202 200 196 194 195 200 202 204 206 206 206 206 208 210 210 211 212 209 208 210 213 213 209
203 225 256 270 247 200 189 192 192 199 238 266 271 32 311 300 296 286 288 284 267 274 286 272 270 67 95 143 101 58 305 307 325 359 10 9 34 46 44 43 25 12 13 352 326 299 283 273 208 235 259 253 231 217 212 208 206 207 205 203 202 202 202 203 203 199 196 196 199 201 203 206 208 207 207 208 210 210 210 210 209 207 207 210 213 211
205 231 237 280 296 295 291 308 350 272 243 264 283 269 265 269 275 279 278 259 259 282 290 265 274 38 123 171 140 190 266 292 314 323 44 43 39 48 44 32 24 16 8 358 347 334 311 282 234 231 255 265 250 231 224 217 213 212 209 204 202 202 202 202 201 198 198 201 202 201 203 206 208 209 209 210 212 212 210 210 210 207 205 208 211 211
206 231 228 279 298 315 336 8 22 319 302 317 271 254 247 257 272 269 263 273 291 298 269 261 285 302 282 267 301 303 296 316 320 337 45 56 51 57 47 21 23 30 14 4 359 352 342 315 277 249 254 271 267 252 241 230 224 221 218 212 206 202 201 203 201 196 195 201 205 203 202 204 207 210 211 211 212 214 213 212 212 210 208 207 209 211
229 221 201 239 260 294 344 38 139 272 293 321 297 265 254 242 249 254 262 309 328 290 281 13 349 294 293 298 306 322 329 315 310 347 22 40 55 56 39 9 19 29 19 14 4 349 339 329 317 287 267 264 264 261 256 249 239 230 224 220 213 205 200 202 204 199 194 196 201 204 204 203 205 209 212 212 213 216 217 216 215 213 211 210 210 212
250 235 183 216 228 204 201 196 197 240 268 286 276 275 271 249 246 259 271 288 296 280 292 336 311 290 297 300 305 330 330 315 333 5 0 25 52 46 10 351 15 17 13 24 12 348 337 329 322 310 293 275 262 254 249 249 247 240 232 225 219 214 208 204 204 203 201 198 197 200 203 204 203 205 207 208 211 214 217 219 219 218 216 215 215 215
264 253 183 229 228 200 206 214 219 233 246 256 262 269 267 258 256 264 277 286 285 281 288 299 294 288 289 294 310 343 337 324 334 297 290 31 46 25 340 334 16 21 14 24 18 4 0 346 322 307 300 287 273 262 249 244 244 242 239 234 227 222 216 210 207 206 207 206 201 197 199 203 204 203 203 204 206 209 212 216 218 218 219 219 219 220
247 224 193 229 235 214 211 223 233 241 251 257 264 271 264 265 266 261 268 280 277 280 289 293 290 286 287 323 335 337 311 285 245 247 257 338 7 346 309 314 6 19 12 20 18 14 10 354 339 323 312 301 287 275 265 256 248 242 239 237 233 229 222 215 214 213 211 211 210 202 197 198 201 202 202 202 204 206 209 213 216 217 218 219 219 219
217 218 180 219 254 244 211 226 239 243 253 255 260 265 254 250 261 262 265 270 268 285 295 286 287 310 78 87 281 244 256 263 253 253 256 268 300 297 287 298 341 353 345 357 7 7 356 344 342 335 324 315 303 289 276 266 255 244 239 237 233 230 224 218 218 219 217 213 212 207 200 197 197 199 201 202 205 208 210 214 216 217 218 219 219 217
214 228 210 227 266 261 188 231 253 248 253 255 254 263 252 239 249 260 266 260 253 271 288 289 316 7 51 263 267 264 270 281 285 288 282 276 272 271 277 282 288 307 317 322 330 339 334 328 322 317 314 308 302 296 286 274 261 249 242 239 235 229 224 220 219 222 222 216 211 208 204 199 196 197 200 202 205 207 210 214 215 216 218 219 220 220
219 235 242 239 263 263 155 248 263 249 254 260 99 290 280 265 259 261 266 262 241 243 273 294 308 315 301 283 291 295 292 308 340 330 300 269 261 265 270 266 268 280 286 294 304 310 310 308 304 302 300 296 295 295 289 277 265 255 245 238 237 232 226 221 218 220 222 218 211 207 205 203 200 198 199 201 202 203 206 211 213 214 215 216 217 219
218 234 249 248 261 277 303 256 254 255 264 105 116 155 280 285 272 270 277 281 263 254 263 275 279 278 278 281 284 283 279 295 309 286 268 252 255 275 284 275 284 298 298 305 313 310 304 301 299 297 294 294 295 295 290 281 268 260 248 236 231 230 227 222 218 217 218 216 211 207 204 204 203 201 200 200 200 200 202 207 211 213 213 212 213 213
224 229 245 250 257 272 272 249 255 286 306 221 175 162 166 231 245 257 267 259 247 257 261 266 277 280 259 243 228 199 250 274 267 255 245 243 248 274 292 302 318 315 310 309 305 304 303 298 296 297 297 298 300 297 294 289 278 267 255 241 232 227 226 223 219 217 215 212 210 208 203 202 203 202 201 199 199 202 204 205 209 212 213 214 214 213
225 229 239 242 241 258 270 263 267 290 284 254 216 186 201 231 231 248 270 250 210 249 259 262 276 272 190 187 180 152 246 271 260 229 198 213 238 264 285 306 316 307 301 300 299 301 302 300 301 305 306 304 303 304 303 294 283 272 259 246 237 230 227 225 221 218 214 209 209 207 201 200 202 201 199 197 198 203 206 207 208 209 210 214 216 216
219 222 230 239 230 241 273 276 268 271 274 267 163 156 192 232 223 232 272 267 189 216 244 253 270 249 167 171 167 163 219 263 264 205 157 179 223 272 289 302 303 300 306 309 308 307 307 311 315 313 312 311 313 316 310 296 285 276 259 245 236 229 228 228 225 223 217 209 209 207 201 199 200 197 197 197 198 203 207 209 210 207 206 210 216 220
204 205 219 247 249 238 263 273 266 271 292 45 113 139 157 200 194 206 265 270 139 134 182 240 252 201 181 186 177 179 228 265 281 105 127 155 186 283 307 311 308 313 321 319 319 319 320 327 324 315 317 328 332 326 314 299 292 282 261 241 233 229 229 231 230 229 225 216 210 205 196 193 191 191 197 200 200 205 209 210 211 206 202 207 216 222
202 211 220 245 254 243 249 260 264 275 316 117 146 143 137 165 195 226 260 279 102 107 124 217 237 198 190 193 192 209 249 287 347 84 112 139 156 231 307 314 313 322 328 331 340 337 330 331 327 318 335 355 340 329 321 310 305 302 270 238 231 232 233 235 235 233 231 225 210 195 185 181 182 187 199 203 201 205 207 208 210 203 196 202 214 219
212 223 231 247 255 245 242 256 270 278 108 129 149 143 139 164 209 248 273 34 90 91 96 149 220 205 194 203 221 239 271 4 75 107 126 143 206 256 297 315 310 317 329 339 351 346 336 337 336 326 1 8 347 338 342 342 353 17 29 236 252 281 258 248 245 234 229 227 205 178 171 179 185 188 198 203 202 204 208 209 210 203 195 199 207 210
221 222 234 250 259 259 258 264 270 276 120 139 146 138 156 196 242 274 307 87 73 48 103 175 218 203 204 221 240 260 58 118 140 150 151 163 256 287 305 314 309 319 337 344 351 351 344 349 4 15 23 12 349 349 15 39 56 62 66 75 63 35 13 286 229 207 205 206 192 158 152 176 188 191 197 201 201 205 209 209 210 206 201 198 200 200
211 216 236 244 250 264 267 254 262 283 137 154 151 145 189 226 293 53 129 121 65 98 161 205 219 218 226 229 228 228 195 164 171 180 185 190 253 316 329 325 314 321 339 350 358 0 357 6 31 40 33 16 356 10 46 63 71 68 62 67 77 82 75 89 168 181 180 180 179 171 168 176 185 192 194 194 198 202 204 205 207 207 203 200 201 200
190 217 251 249 208 248 265 254 260 334 145 169 172 162 203 197 79 42 305 19 108 200 231 237 215 221 237 238 228 216 193 173 181 201 221 223 214 349 340 332 324 329 343 359 12 13 13 28 43 45 40 26 18 35 52 64 75 71 59 55 65 86 103 113 133 148 146 142 148 161 165 156 156 188 192 187 194 203 206 204 201 200 200 202 205 201
201 214 271 268 194 230 284 331 76 102 155 178 188 93 113 130 94 8 298 314 217 219 250 256 228 208 220 233 229 212 190 176 187 203 222 227 210 32 344 333 338 348 355 6 19 25 32 47 52 55 56 41 28 34 43 53 66 67 61 59 65 77 95 110 115 118 125 132 136 145 149 138 129 151 178 188 198 212 219 210 196 193 196 199 205 205
176 173 245 263 207 207 248 108 136 156 169 178 180 136 108 123 125 169 243 276 293 201 226 273 288 210 196 214 216 199 180 172 179 192 207 212 193 88 11 349 358 9 12 17 26 32 38 51 58 64 67 56 41 38 44 52 59 61 60 63 69 76 86 95 98 100 107 115 118 123 129 127 122 124 135 147 153 172 218 219 201 189 189 192 200 205
158 207 228 221 191 210 211 181 175 181 183 183 181 178 181 161 143 168 223 251 97 196 218 285 319 184 184 200 198 171 156 160 177 187 188 182 166 124 72 37 25 26 28 28 30 32 36 47 58 65 66 61 55 50 49 53 58 61 61 62 68 81 91 92 92 91 91 94 99 104 107 107 108 110 115 119 122 122 130 149 150 143 149 166 180 176
169 202 225 215 208 220 185 149 157 160 172 189 194 193 196 190 170 174 205 199 156 192 199 147 184 191 175 166 155 143 144 162 181 184 173 167 161 132 95 66 46 38 36 34 33 36 41 48 59 67 63 58 59 62 61 60 62 65 67 69 74 86 91 93 92 90 87 83 81 85 92 96 99 102 103 104 111 113 109 108 112 112 113 124 140 145
142 177 205 214 215 218 165 145 159 163 174 201 217 212 193 185 179 178 191 202 194 192 184 170 184 185 158 143 141 145 154 167 179 178 167 157 144 125 104 82 66 55 48 45 43 44 44 42 50 65 66 62 65 70 73 73 71 72 76 80 86 92 92 91 90 86 83 82 81 84 91 94 95 96 95 94 96 97 93 95 106 113 111 115 130 145
174 193 195 202 221 237 219 172 171 186 203 207 214 208 188 178 181 180 185 198 203 199 187 171 162 154 142 137 144 157 162 164 171 174 163 147 133 118 104 88 73 65 58 53 51 52 51 47 51 60 62 61 64 70 76 78 76 77 83 87 92 96 97 96 93 87 80 77 77 81 86 88 89 90 90 90 91 90 87 87 95 104 107 111 124 137
208 203 194 212 236 261 222 166 176 202 251 160 187 192 181 178 184 184 188 202 205 197 184 174 163 151 141 139 151 162 161 161 169 170 153 139 131 120 110 97 78 73 69 62 60 62 60 56 57 60 60 60 65 72 77 76 74 76 84 92 96 99 99 97 96 93 86 81 80 82 86 90 92 92 93 95 96 96 92 87 84 85 87 92 99 106